Powrót do katalogu

SAPPHIRE

AktywnyMilitariaSSO
NORAD 39088·PAYLOAD·🇨🇦 Canada

Wystrzelony Feb 25, 2013 z Satish Dhawan Space Centre

Loading…

Następne Przeloty (najbliższe 24 godziny)

TLE

ŚwieżeSource: Space-Track

Epoka: Sep 14, 2026, 14:31 UTC

1 39088U 13009C   26257.60544069  .00000049  00000-0  32171-4 0  9998
2 39088  98.4313  74.9699 0010919 348.9916  11.1030 14.35259982709406

Śledź SAPPHIRE w czasie rzeczywistym z AllMySat

Download on the App Store